Zurück zum Katalog

FENGYUN 1C DEB *

AktivSSO
NORAD 47104·DEBRIS·🇨🇳 China

Gestartet May 10, 1999 von Taiyuan Satellite Launch Center

Loading…

Nächste Überflüge (nächste 24 Stunden)

TLE

AktuellSource: Space-Track

Epoche: Sep 12, 2026, 07:44 UTC

1 47104U 99025FCC 26255.32224893  .00000214  00000-0  12193-3 0  9990
2 47104  98.8805 291.0216 0039606 272.4937  87.1705 14.19650908662549

Verfolge FENGYUN 1C DEB * in Echtzeit mit AllMySat

Download on the App Store